When you browse on this site, cookies collect data to enhance your experience and personalize the content and advertising you see.
Visit our Privacy Policy to learn more. By continuing to use the site, you agree to this use of cookies and data.
  • In Austria
  • List of Countries
  • For 7 days
  • Water Temperature
  • Satellite Maps
  • Weather Map
  • News
  • Weather Widgets
  • user-avatar
    Login

    Hourly Weather Yulara

    Today, 26 May, Sunday

    Time Temperature Precipitation Wind Pressure Humidity
    00:00 +19°C° 0 mm 5 mps 721 mmHg 43%
    01:00 +17°C° 0 mm 5 mps 721 mmHg 43%
    02:00 +17°C° 0 mm 5 mps 721 mmHg 43%
    03:00 +16°C° 0 mm 5 mps 721 mmHg 42%
    04:00 +16°C° 0 mm 5 mps 721 mmHg 43%
    05:00 +15°C° 0 mm 5 mps 721 mmHg 43%
    06:00 +15°C° 0 mm 4 mps 721 mmHg 43%
    07:00 +15°C° 0 mm 5 mps 722 mmHg 42%
    08:00 +16°C° 0 mm 5 mps 722 mmHg 40%
    09:00 +19°C° 0 mm 5 mps 722 mmHg 37%
    10:00 +20°C° 0 mm 5 mps 722 mmHg 35%
    11:00 +21°C° 0 mm 5 mps 722 mmHg 33%
    12:00 +23°C° 0 mm 5 mps 722 mmHg 31%
    13:00 +23°C° 0 mm 4 mps 721 mmHg 29%
    14:00 +25°C° 0 mm 3 mps 721 mmHg 28%
    15:00 +25°C° 0 mm 3 mps 720 mmHg 28%
    16:00 +24°C° 0 mm 3 mps 720 mmHg 30%
    17:00 +24°C° 0 mm 3 mps 720 mmHg 31%
    18:00 +22°C° 0 mm 3 mps 721 mmHg 33%
    19:00 +21°C° 0 mm 3 mps 721 mmHg 35%
    20:00 +20°C° 0 mm 4 mps 721 mmHg 37%
    21:00 +19°C° 0 mm 4 mps 722 mmHg 39%
    22:00 +19°C° 0 mm 4 mps 722 mmHg 41%
    23:00 +18°C° 0 mm 4 mps 722 mmHg 44%

    Tomorrow, 27 May, Monday

    Time Temperature Precipitation Wind Pressure Humidity
    00:00 +17°C° 0 mm 4 mps 722 mmHg 46%
    01:00 +16°C° 0 mm 5 mps 722 mmHg 48%
    02:00 +15°C° 0 mm 5 mps 722 mmHg 49%
    03:00 +14°C° 0 mm 5 mps 722 mmHg 51%
    04:00 +14°C° 0 mm 5 mps 722 mmHg 53%
    05:00 +13°C° 0 mm 5 mps 722 mmHg 55%
    06:00 +13°C° 0 mm 5 mps 723 mmHg 58%
    07:00 +14°C° 0 mm 5 mps 723 mmHg 55%
    08:00 +15°C° 0 mm 6 mps 723 mmHg 51%
    09:00 +15°C° 0 mm 6 mps 723 mmHg 48%
    10:00 +17°C° 0 mm 6 mps 723 mmHg 44%
    11:00 +20°C° 0 mm 6 mps 723 mmHg 40%
    12:00 +21°C° 0 mm 5 mps 723 mmHg 36%
    13:00 +22°C° 0 mm 5 mps 722 mmHg 34%
    14:00 +22°C° 0 mm 5 mps 722 mmHg 32%
    15:00 +23°C° 0 mm 4 mps 722 mmHg 30%
    16:00 +22°C° 0 mm 4 mps 722 mmHg 32%
    17:00 +20°C° 0 mm 4 mps 722 mmHg 34%
    18:00 +19°C° 0 mm 3 mps 722 mmHg 36%
    19:00 +19°C° 0 mm 4 mps 722 mmHg 38%
    20:00 +18°C° 0 mm 4 mps 722 mmHg 40%
    21:00 +17°C° 0 mm 4 mps 723 mmHg 42%
    22:00 +15°C° 0 mm 4 mps 723 mmHg 42%
    23:00 +15°C° 0 mm 4 mps 723 mmHg 43%

    Day after tomorrow, 28 May, Tuesday

    Time Temperature Precipitation Wind Pressure Humidity
    00:00 +14°C° 0 mm 4 mps 723 mmHg 44%
    01:00 +13°C° 0 mm 4 mps 722 mmHg 45%
    02:00 +13°C° 0 mm 4 mps 722 mmHg 46%
    03:00 +12°C° 0 mm 4 mps 722 mmHg 47%
    04:00 +12°C° 0 mm 4 mps 722 mmHg 50%
    05:00 +11°C° 0 mm 4 mps 722 mmHg 52%
    06:00 +11°C° 0 mm 3 mps 722 mmHg 54%
    07:00 +12°C° 0 mm 4 mps 722 mmHg 51%
    08:00 +13°C° 0 mm 4 mps 723 mmHg 48%
    09:00 +14°C° 0 mm 5 mps 723 mmHg 45%
    10:00 +17°C° 0 mm 4 mps 723 mmHg 41%
    11:00 +18°C° 0 mm 4 mps 723 mmHg 36%
    12:00 +20°C° 0 mm 3 mps 722 mmHg 32%
    13:00 +20°C° 0 mm 3 mps 722 mmHg 31%
    14:00 +21°C° 0 mm 2 mps 721 mmHg 29%
    15:00 +23°C° 0 mm 2 mps 720 mmHg 28%
    16:00 +21°C° 0 mm 2 mps 720 mmHg 30%
    17:00 +20°C° 0 mm 2 mps 720 mmHg 32%
    18:00 +19°C° 0 mm 2 mps 720 mmHg 34%
    19:00 +18°C° 0 mm 3 mps 720 mmHg 35%
    20:00 +18°C° 0 mm 3 mps 721 mmHg 37%
    21:00 +17°C° 0 mm 3 mps 721 mmHg 38%
    22:00 +17°C° 0 mm 3 mps 721 mmHg 39%
    23:00 +16°C° 0 mm 3 mps 721 mmHg 40%

    29 May, Wednesday

    Time Temperature Precipitation Wind Pressure Humidity
    00:00 +16°C° 0 mm 3 mps 721 mmHg 42%
    01:00 +14°C° 0 mm 3 mps 721 mmHg 42%
    02:00 +14°C° 0 mm 3 mps 721 mmHg 43%
    03:00 +14°C° 0 mm 3 mps 721 mmHg 44%
    04:00 +13°C° 0 mm 3 mps 721 mmHg 46%
    05:00 +12°C° 0 mm 3 mps 721 mmHg 48%
    06:00 +12°C° 0 mm 4 mps 721 mmHg 51%
    07:00 +12°C° 0 mm 4 mps 722 mmHg 50%
    08:00 +13°C° 0 mm 5 mps 722 mmHg 49%
    09:00 +14°C° 0 mm 5 mps 722 mmHg 49%
    10:00 +16°C° 0 mm 5 mps 722 mmHg 45%
    11:00 +18°C° 0 mm 4 mps 722 mmHg 40%
    12:00 +20°C° 0 mm 3 mps 722 mmHg 36%
    13:00 +20°C° 0 mm 4 mps 721 mmHg 34%
    14:00 +21°C° 0 mm 4 mps 721 mmHg 33%
    15:00 +21°C° 0 mm 4 mps 720 mmHg 31%
    16:00 +20°C° 0 mm 4 mps 720 mmHg 33%
    17:00 +19°C° 0 mm 4 mps 721 mmHg 35%
    18:00 +18°C° 0 mm 4 mps 721 mmHg 36%
    19:00 +16°C° 0 mm 5 mps 721 mmHg 39%
    20:00 +16°C° 0 mm 5 mps 722 mmHg 42%
    21:00 +15°C° 0 mm 6 mps 723 mmHg 45%
    22:00 +14°C° 0 mm 6 mps 723 mmHg 50%
    23:00 +13°C° 0 mm 6 mps 723 mmHg 55%

    30 May, Thursday

    Time Temperature Precipitation Wind Pressure Humidity
    00:00 +13°C° 0 mm 6 mps 723 mmHg 61%
    01:00 +11°C° 0 mm 6 mps 723 mmHg 64%
    02:00 +12°C° 0 mm 5 mps 723 mmHg 68%
    03:00 +10°C° 0 mm 5 mps 723 mmHg 72%
    04:00 +10°C° 0 mm 5 mps 723 mmHg 74%
    05:00 +9°C° 0 mm 5 mps 724 mmHg 75%
    06:00 +9°C° 0 mm 5 mps 724 mmHg 77%
    07:00 +10°C° 0 mm 6 mps 724 mmHg 74%
    08:00 +11°C° 0 mm 7 mps 725 mmHg 71%
    09:00 +12°C° 0 mm 8 mps 726 mmHg 67%
    10:00 +13°C° 0 mm 8 mps 725 mmHg 60%
    11:00 +15°C° 0 mm 7 mps 725 mmHg 53%
    12:00 +16°C° 0 mm 7 mps 725 mmHg 46%
    13:00 +17°C° 0 mm 7 mps 724 mmHg 41%
    14:00 +18°C° 0 mm 7 mps 724 mmHg 36%
    15:00 +18°C° 0 mm 7 mps 723 mmHg 31%
    16:00 +17°C° 0 mm 7 mps 724 mmHg 33%
    17:00 +16°C° 0 mm 7 mps 724 mmHg 34%
    18:00 +14°C° 0 mm 6 mps 724 mmHg 36%
    19:00 +12°C° 0 mm 7 mps 725 mmHg 37%
    20:00 +11°C° 0 mm 7 mps 725 mmHg 38%
    21:00 +10°C° 0 mm 7 mps 726 mmHg 39%
    22:00 +10°C° 0 mm 7 mps 726 mmHg 40%
    23:00 +9°C° 0 mm 6 mps 726 mmHg 42%

    31 May, Friday

    Time Temperature Precipitation Wind Pressure Humidity
    00:00 +8°C° 0 mm 6 mps 726 mmHg 44%
    01:00 +8°C° 0 mm 6 mps 726 mmHg 45%
    02:00 +7°C° 0 mm 6 mps 726 mmHg 46%
    03:00 +7°C° 0 mm 6 mps 726 mmHg 48%
    04:00 +5°C° 0 mm 6 mps 726 mmHg 48%
    05:00 +6°C° 0 mm 5 mps 727 mmHg 48%
    06:00 +5°C° 0 mm 5 mps 727 mmHg 48%
    07:00 +5°C° 0 mm 6 mps 727 mmHg 45%
    08:00 +8°C° 0 mm 7 mps 727 mmHg 43%
    09:00 +9°C° 0 mm 8 mps 728 mmHg 40%
    10:00 +10°C° 0 mm 8 mps 727 mmHg 36%
    11:00 +12°C° 0 mm 8 mps 727 mmHg 32%
    12:00 +13°C° 0 mm 8 mps 726 mmHg 28%
    13:00 +15°C° 0 mm 8 mps 726 mmHg 26%
    14:00 +16°C° 0 mm 8 mps 725 mmHg 24%
    15:00 +16°C° 0 mm 7 mps 725 mmHg 23%
    16:00 +15°C° 0 mm 7 mps 725 mmHg 25%
    17:00 +14°C° 0 mm 6 mps 725 mmHg 27%
    18:00 +13°C° 0 mm 5 mps 726 mmHg 29%
    19:00 +12°C° 0 mm 5 mps 726 mmHg 30%
    20:00 +10°C° 0 mm 6 mps 726 mmHg 32%
    21:00 +9°C° 0 mm 7 mps 727 mmHg 33%
    22:00 +9°C° 0 mm 6 mps 727 mmHg 34%
    23:00 +8°C° 0 mm 5 mps 727 mmHg 35%
    Show more